Theta_e
295 294 294 293 297 296 297 298 298 298 296 295 287 295 297 297 297 297 297 298 298 298 298 297 297 297 297 297 298 298 300 302 301 300 301 303 301 303 305 307 310 312 308 310
294 293 293 295 297 296 297 298 299 299 296 295 294 296 297 297 297 297 297 297 298 298 298 297 297 297 297 297 298 299 300 300 300 300 301 302 301 305 306 306 310 312 312 310
292 293 294 296 296 296 296 298 296 298 296 295 296 297 297 297 297 297 297 297 297 297 297 297 297 297 297 297 297 299 299 300 299 300 300 301 303 305 304 305 309 310 308 307
293 294 295 297 297 296 295 296 293 295 296 295 296 295 297 297 298 297 297 297 297 297 296 297 297 297 297 297 298 299 298 298 299 300 300 300 304 304 303 304 305 305 303 303
293 294 295 297 297 296 295 295 295 295 295 295 295 294 296 297 298 297 296 297 297 297 295 296 296 297 297 298 298 298 298 299 299 300 299 300 302 303 303 303 303 302 302 302
292 293 294 295 296 295 295 296 295 295 292 294 295 296 297 297 297 297 297 297 297 296 297 297 297 297 297 297 297 298 298 300 300 300 300 302 302 304 304 302 302 302 302 301
292 293 293 294 295 295 295 295 295 294 294 294 296 296 296 297 297 297 297 297 297 297 297 297 297 296 296 296 297 297 298 299 299 300 300 301 302 301 304 301 301 301 300 301
294 294 294 295 295 295 295 294 295 294 294 295 295 295 296 296 296 296 296 296 296 297 296 298 299 299 300 299 299 299 297 299 300 300 300 300 301 301 302 301 300 300 298 298
294 294 294 294 295 295 295 295 294 294 294 295 295 295 295 296 297 296 296 297 297 296 296 297 299 300 299 300 300 299 298 296 299 299 300 301 301 300 300 302 300 300 297 297
293 293 293 294 294 294 294 294 294 294 294 294 295 295 296 296 295 295 294 297 296 295 295 297 297 299 298 300 299 300 301 300 298 297 299 300 299 300 300 300 300 299 296 296
293 293 293 293 293 293 293 293 293 293 294 294 294 296 295 295 295 297 296 295 295 295 294 295 295 297 297 297 298 300 300 299 299 298 297 299 299 300 301 300 300 297 295 295
292 291 291 292 292 292 292 292 293 292 293 294 294 295 296 296 297 297 297 296 295 294 292 290 296 297 295 296 299 297 300 301 300 299 299 297 299 300 299 299 300 295 295 294
290 290 290 290 290 290 291 292 291 291 292 292 293 293 293 297 298 297 297 297 297 297 297 294 295 296 295 299 299 297 298 299 301 299 298 299 299 298 298 297 296 295 294 293
290 290 290 290 290 290 290 291 291 291 292 293 294 296 297 297 297 297 298 298 298 298 298 296 294 296 295 299 298 298 299 297 300 300 299 298 297 298 299 299 297 295 294 293
290 289 289 289 289 289 290 290 290 293 293 293 293 296 297 296 296 296 298 299 298 298 297 296 297 295 296 296 296 298 296 298 300 299 297 298 298 297 298 298 296 295 294 293
289 288 289 289 289 289 289 289 290 294 292 292 294 293 295 296 296 297 297 299 298 298 297 297 296 295 297 298 299 297 296 297 297 298 297 297 297 297 296 296 295 295 294 294
288 288 289 288 288 289 291 293 293 294 293 293 292 293 295 296 297 298 298 298 297 298 298 297 297 296 297 298 298 298 298 297 298 298 297 297 296 296 296 295 295 295 294 294
288 289 289 288 288 290 295 295 295 294 294 294 293 294 295 296 297 298 297 298 297 297 297 295 296 295 296 298 298 298 298 298 298 298 297 297 296 296 296 295 295 295 294 294
289 288 288 289 290 291 295 295 295 295 294 292 293 294 296 296 296 296 296 297 298 296 297 297 296 298 298 298 298 298 298 298 298 297 297 297 296 296 296 295 295 294 294 293
289 292 293 295 295 294 295 294 295 294 295 294 293 292 295 295 295 295 295 294 297 298 297 295 297 298 298 298 298 298 298 298 297 297 297 296 296 296 295 295 295 294 294 293
293 295 295 295 294 294 294 294 293 293 294 293 292 292 294 294 297 297 294 294 294 297 296 296 297 297 296 297 297 297 298 297 297 297 296 296 296 295 295 294 294 293 293 292
294 295 295 295 294 293 293 291 293 293 294 293 293 294 292 293 294 296 293 296 294 296 293 294 296 296 295 297 297 297 297 297 296 296 296 296 294 292 291 290 291 291 290 289
294 293 294 294 292 293 291 289 293 294 293 294 294 295 295 294 295 294 295 296 296 293 294 296 296 294 296 298 297 297 297 296 296 296 296 293 292 291 289 289 289 288 287 286
293 292 286 288 287 291 292 293 293 294 294 294 295 295 295 294 294 291 295 295 294 295 294 296 296 295 296 298 297 297 297 296 296 296 294 293 292 289 288 288 287 286 285 285
291 291 287 289 290 291 292 292 293 294 294 294 295 295 295 294 293 294 294 294 295 295 296 295 296 297 297 298 298 298 297 296 296 295 294 293 291 289 289 288 286 284 285 285
291 291 292 291 291 289 291 292 293 294 295 295 296 294 294 295 295 295 294 295 295 295 295 295 296 297 297 297 298 297 297 296 296 296 294 293 291 290 289 287 284 285 285 286
290 290 291 292 292 292 292 293 294 294 295 295 294 294 295 293 294 294 295 295 295 294 295 296 297 297 296 297 297 297 297 297 297 296 295 293 292 290 288 285 285 285 285 285
Wind_Speed
39 37 37 37 39 36 22 9 4 5 4 7 4 3 6 4 2 2 1 2 4 2 4 7 5 4 6 14 13 13 3 5 9 20 14 5 13 9 10 4 6 2 2 5
39 38 38 39 39 33 18 8 7 7 3 4 2 4 4 3 2 1 2 1 1 1 1 4 3 5 7 18 13 4 5 3 9 14 5 5 8 19 19 16 8 4 1 5
38 37 37 39 38 26 17 9 3 6 11 9 6 6 3 3 3 2 1 1 1 4 3 3 5 8 8 21 14 13 5 3 5 6 13 14 13 23 25 18 5 12 12 13
37 36 36 37 36 25 10 4 3 4 3 3 5 3 4 4 3 2 1 1 1 3 4 5 2 9 14 8 6 5 6 4 5 13 16 11 11 24 27 24 21 13 18 18
35 33 32 34 32 25 5 6 8 9 7 11 8 3 2 4 3 2 1 2 6 2 3 6 8 9 4 4 7 9 4 3 6 5 7 5 20 24 23 27 21 19 18 15
31 30 28 30 29 23 5 12 22 13 2 5 4 4 4 4 1 3 5 3 5 2 5 9 19 18 20 18 9 6 6 5 6 5 18 5 8 19 16 17 21 15 17 9
27 25 24 24 25 23 7 27 19 9 3 2 4 7 4 3 2 1 4 6 2 3 20 17 3 4 9 8 8 13 5 7 3 5 10 6 2 16 8 19 19 19 16 10
25 23 20 18 17 14 12 28 11 8 4 7 6 10 6 2 1 1 3 4 6 14 8 3 3 3 3 2 3 5 7 3 3 4 5 3 7 15 7 7 12 16 14 14
24 21 20 18 17 17 21 19 10 10 14 5 10 7 7 3 1 2 3 5 8 10 3 3 3 4 3 5 11 2 4 3 2 3 3 6 9 18 16 3 10 17 15 14
23 20 19 18 18 16 15 16 13 10 11 13 14 4 5 6 4 1 3 6 7 10 3 3 3 2 2 4 6 6 6 4 4 3 2 3 9 21 6 6 5 14 14 16
21 19 17 16 16 15 14 15 12 9 8 16 9 13 12 9 4 2 1 1 4 3 4 1 0 1 2 3 3 4 4 4 3 2 3 4 13 9 5 3 7 9 12 11
19 17 16 15 13 12 12 14 13 14 9 9 12 10 10 7 5 4 2 3 2 2 3 2 1 1 1 1 2 1 1 1 2 3 2 5 9 6 8 6 7 7 6 7
17 16 15 13 11 10 9 13 11 13 11 10 7 6 8 7 5 5 3 3 2 2 2 3 1 4 2 2 3 2 2 2 2 2 1 6 7 8 6 4 6 8 10 10
14 14 13 12 12 11 9 11 10 8 8 5 5 9 11 9 5 6 6 4 4 2 3 2 2 3 6 2 2 3 3 1 2 4 8 9 4 8 10 8 5 7 9 11
12 12 13 13 12 11 12 10 8 8 3 5 7 8 9 7 8 10 10 11 10 3 1 2 3 3 2 3 2 4 6 4 3 3 3 4 12 12 6 2 5 9 12 12
12 12 13 14 14 14 15 6 4 7 7 6 3 3 7 7 8 10 11 11 10 7 4 4 4 5 4 2 3 6 11 9 9 4 8 11 13 11 7 5 6 9 11 12
11 11 12 15 15 12 6 5 11 10 6 6 3 3 4 8 9 9 10 12 8 8 4 5 5 5 7 2 5 7 9 12 9 9 8 7 8 7 6 8 8 11 12 13
11 12 13 14 15 14 13 13 14 9 8 6 2 1 0 8 5 6 7 6 7 7 5 2 4 3 4 5 14 15 12 12 10 8 6 6 7 6 7 8 11 13 14 15
13 17 20 17 10 6 10 14 10 6 6 3 2 2 2 6 5 4 4 5 2 3 3 4 4 3 6 9 13 14 12 10 6 5 5 4 5 7 10 12 14 15 16 15
18 13 4 5 9 17 15 5 3 2 2 2 2 3 2 4 5 3 2 2 1 2 2 3 3 5 19 22 16 13 9 12 8 7 6 6 7 9 11 12 14 14 15 17
8 3 5 20 16 6 3 3 3 2 1 4 4 10 2 5 2 2 3 1 0 2 1 2 2 3 4 5 7 11 8 8 8 7 6 5 6 8 12 13 14 15 16 20
7 14 18 13 3 3 3 1 3 3 3 5 5 7 10 3 4 2 2 1 0 4 0 1 3 3 4 3 6 7 7 7 7 6 5 6 8 10 12 13 12 13 15 19
16 4 5 4 2 2 5 5 3 2 5 8 8 4 7 4 5 3 1 1 3 1 1 3 4 4 4 6 7 7 8 8 8 6 6 7 9 12 12 11 12 15 17 18
3 4 2 3 2 4 4 4 4 6 5 14 13 7 3 4 3 2 2 1 1 2 2 4 2 7 5 9 9 9 9 9 9 8 7 8 10 10 10 12 16 18 18 16
3 4 3 5 5 4 3 10 2 6 10 13 8 5 3 1 2 2 1 1 3 4 4 3 5 2 5 9 10 10 11 12 11 10 10 9 9 9 11 13 16 13 13 14
2 3 2 4 1 3 7 8 13 9 7 10 4 3 2 3 3 3 6 3 5 3 3 9 7 5 7 9 9 11 13 13 13 14 12 10 9 10 11 15 12 11 10 10
3 5 10 9 5 6 6 15 10 13 11 2 3 4 6 3 2 3 4 5 3 8 9 7 9 9 9 10 12 15 16 16 16 17 15 12 11 10 12 13 10 9 9 10
Wind_Direction
157 154 156 159 156 151 145 104 87 113 96 55 50 88 134 136 115 59 76 169 228 244 345 299 301 289 298 305 330 327 335 290 312 311 295 246 347 294 290 262 274 261 240 63
157 159 159 159 159 154 142 93 99 56 54 111 85 112 95 102 130 161 145 145 126 298 317 312 299 304 289 312 332 325 330 340 319 337 359 314 344 341 335 320 275 298 130 76
157 158 161 161 159 153 146 132 105 54 66 88 108 111 85 118 67 81 60 251 290 335 309 260 288 303 310 317 303 309 16 261 244 274 277 304 311 358 2 5 349 47 56 96
156 158 160 163 165 166 162 108 108 138 126 72 107 106 130 134 110 85 264 175 79 27 311 318 256 315 326 328 319 10 338 269 270 272 287 329 344 6 13 20 21 53 57 48
154 156 158 165 172 177 159 126 139 85 83 119 112 26 173 115 106 145 173 208 320 234 203 217 292 317 330 301 333 345 0 280 313 298 335 314 23 11 21 24 21 41 49 51
150 155 159 170 177 177 158 125 124 120 95 139 136 171 163 119 123 206 240 292 316 264 255 286 281 271 264 264 296 307 319 314 327 300 337 92 4 3 23 33 24 18 44 30
148 154 161 167 175 184 182 150 133 108 137 148 132 143 113 143 179 256 277 303 243 289 313 313 303 265 246 237 251 237 294 320 326 297 342 55 166 12 23 57 27 17 27 35
146 152 157 161 170 184 181 157 143 127 121 142 130 140 119 120 237 190 270 290 311 321 340 16 17 357 4 347 45 35 219 313 317 338 340 313 16 1 357 47 37 16 15 11
137 141 144 144 145 144 168 164 151 131 126 220 143 129 120 134 91 21 277 324 336 356 58 53 48 33 327 332 343 99 118 34 50 357 20 6 356 337 341 297 45 4 8 13
135 132 132 134 138 145 166 145 139 131 102 154 142 126 137 136 107 152 305 340 4 10 37 56 43 28 322 346 332 337 353 355 25 12 24 286 331 341 343 51 353 339 5 10
134 136 137 136 139 140 147 133 130 121 102 156 157 138 139 134 141 141 259 81 23 45 66 73 142 281 0 298 288 329 360 351 354 339 4 351 1 354 42 295 319 355 16 19
135 135 137 140 145 147 149 139 132 122 117 146 165 155 158 146 153 133 79 109 125 147 96 200 256 258 270 259 315 260 349 186 292 228 252 254 303 278 313 300 312 350 16 11
137 138 139 141 144 149 144 133 124 120 115 120 143 181 185 174 169 190 123 120 108 128 100 136 89 256 171 232 238 278 227 170 236 322 237 256 275 276 277 307 330 347 355 356
142 146 147 152 156 148 138 130 121 110 118 108 109 142 156 176 206 214 200 153 142 93 170 138 185 249 200 250 302 250 256 206 238 259 286 314 324 333 325 254 320 350 356 355
141 143 148 145 144 146 138 124 121 104 110 126 119 168 192 225 230 212 210 223 237 238 176 183 234 223 212 227 271 243 198 205 203 250 296 277 295 323 330 262 311 341 350 354
141 144 141 135 137 142 132 111 151 108 98 100 94 155 169 193 192 189 210 225 236 220 213 215 237 229 208 254 249 254 219 228 238 249 294 302 304 292 273 274 308 333 339 341
139 138 130 127 136 139 104 114 146 126 89 80 71 13 162 182 184 198 217 228 224 221 232 222 227 222 195 243 247 244 239 237 249 271 295 305 300 281 275 282 300 316 324 330
136 124 122 121 130 111 83 106 124 112 72 76 98 285 56 179 175 183 201 200 207 222 231 221 215 181 213 252 243 258 261 240 239 253 267 291 308 305 286 290 300 307 314 321
124 118 114 108 100 82 112 120 123 90 64 99 121 153 193 174 176 169 175 199 218 205 231 229 176 192 225 236 247 254 248 214 215 218 240 262 285 300 301 296 296 297 305 316
131 126 111 92 104 108 111 113 132 88 116 186 181 188 227 170 165 161 154 193 237 239 218 163 224 250 251 253 256 260 252 221 228 213 237 268 292 306 312 311 309 308 313 320
147 118 78 126 121 115 104 84 83 147 247 205 211 199 170 182 155 175 205 171 193 264 171 248 251 261 255 295 239 230 217 216 216 228 255 279 296 310 316 316 313 311 312 317
125 117 121 126 130 87 89 121 130 207 237 194 176 192 191 179 188 171 177 214 129 248 82 246 262 254 267 242 193 199 208 211 215 228 261 293 314 322 322 321 320 319 318 317
132 107 118 150 120 134 156 192 199 211 198 179 167 152 155 154 184 129 146 163 235 353 270 243 239 263 270 207 199 210 214 214 226 251 282 309 324 329 331 330 324 324 326 326
123 139 86 163 188 218 194 191 186 201 183 166 161 138 145 153 143 138 162 220 280 274 245 241 251 260 263 218 215 221 226 233 243 259 282 304 323 331 331 326 325 326 331 343
130 136 194 207 221 220 211 212 206 166 146 151 138 101 153 123 111 183 127 155 248 226 235 233 255 250 214 217 227 239 242 245 250 259 274 291 312 325 327 324 325 328 333 338
177 199 211 205 181 242 204 201 212 184 159 153 145 123 124 206 150 157 207 203 224 242 223 246 246 243 251 247 247 256 261 261 260 260 268 285 302 313 321 327 325 324 328 341
216 234 222 222 272 250 222 205 198 186 170 187 149 158 196 117 171 226 194 215 214 237 253 270 242 259 267 268 267 269 273 269 265 263 266 275 285 301 317 323 318 320 325 332